Location: Newark
(7.5381°N, 8.4972°W)
Time: 01:51:14
(UTC+00:00)

Envisat - Visible Passes

Search period start: 16 October 2019 00:00
Search period end: 26 October 2019 00:00
Orbit: 764 x 766 km, 98.1° (Epoch: 15 October)

Date Brightness Start Highest point End Pass type
(mag) Time Alt. Az. Time Alt. Az. Time Alt. Az.
16 Oct 5.3 19:49:45 10° SSW 19:53:49 24° W 19:57:53 10° NW visible
17 Oct 3.3 19:12:04 10° S 19:17:07 70° WSW 19:22:09 10° NNW visible
18 Oct 3.4 18:35:43 10° SE 18:40:27 41° ENE 18:45:10 10° N visible
18 Oct 6.2 20:17:41 10° WSW 20:19:16 11° W 20:20:51 10° W visible
19 Oct 4.8 19:38:02 10° SSW 19:42:33 33° W 19:47:05 10° NW visible
20 Oct 2.9 19:00:48 10° SSE 19:05:52 86° E 19:10:56 10° N visible
21 Oct 5.9 20:05:00 10° SW 20:08:01 16° W 20:11:03 10° WNW visible
22 Oct 4.1 19:26:30 10° S 19:31:20 45° W 19:36:08 10° NNW visible
23 Oct 3.0 18:49:38 10° SSE 18:54:39 63° ENE 18:59:38 10° N visible
24 Oct 5.5 19:52:57 10° SSW 19:56:46 22° W 20:00:37 10° NW visible
25 Oct 3.5 19:15:04 10° S 19:20:04 62° WSW 19:25:05 10° NNW visible
